Location: C�an Torras
(41.5052°N, 1.9280°E)
Time: 07:00:24
(UTC+00:00)

Cosmos 1943 - Visible Passes

Search period start: 11 May 2021 00:00
Search period end: 21 May 2021 00:00
Orbit: 834 x 849 km, 71.0° (Epoch: 10 May)

Date Brightness Start Highest point End Pass type
(mag) Time Alt. Az. Time Alt. Az. Time Alt. Az.
12 May 6.1 20:15:08 10° W 20:16:21 11° W 20:17:34 10° WSW visible
13 May 6.0 19:59:33 10° WNW 20:01:19 11° W 20:03:06 10° WSW visible
14 May 6.0 19:44:06 10° WNW 19:46:17 12° W 19:48:29 10° WSW visible
